Back to catalog

ONEWEB-0029

AliveCommunicationsPO
NORAD 45445·PAYLOAD·🇬🇧 United Kingdom

Launched Mar 21, 2020 from Baikonur Cosmodrome

Loading…

Next Passes (next 24 hours)

TLE

FreshSource: CelesTrak SupGP

Epoch: Sep 15, 2026, 00:05 UTC

1 45445C 20020X   26258.00397407 -.00000084  00000+0 -23633-3 0  2580
2 45445  87.8967   3.2105 0002053 100.7323   2.7780 13.11414439    12

Track ONEWEB-0029 in real time with AllMySat

Download on the App Store